User: anonymous   Login
Location: Chervonnoye
(48.6000°N, 34.4000°E)
Time: 06:05:38
(UTC+00:00)
Language:

NOAA 12 - Orbit

View from above orbital plane
View from above orbital plane
View from above satellite
View from above satellite

Ground track
Ground track

The orbit data is extracted from the following two-line orbital elements,

1 21263U 91032A   21055.92654521  .00000007  00000-0  20684-4 0  9997
2 21263  98.5061  64.4961 0012608 299.3381  60.6540 14.25933446548679
Epoch (UTC): 24 February 2021 22:14:13
Eccentricity: 0.0012608
inclination: 98.5061°
perigee height: 796 km
apogee height: 814 km
right ascension of ascending node: 64.4961°
argument of perigee: 299.3381°
revolutions per day: 14.25933446
mean anomaly at epoch: 60.6540°
orbit number at epoch: 54867

The dashed part of the orbit path shows where the satellite is in the earth's shadow,  

DLR